FW0416 Weather Reports


time (UTC)temp
C
wind
direction
speed
KPH
gust
KPH
rain 1hr
cm
rain 24hr
cm
rain mn
cm
humidity
%
barometer
mb
20260510104344 15 144 0.0 0.0 0.00 0.00 0.00 97 1014.3
20260510103840 15 135 0.0 0.0 0.00 0.00 0.00 97 1014.1
20260510103337 15 135 0.0 0.0 0.00 0.00 0.00 97 1014.0
20260510102833 15 135 0.0 0.0 0.00 0.00 0.00 97 1014.0
20260510102328 15 136 0.0 0.0 0.00 0.00 0.00 97 1013.9
20260510101826 15 142 0.0 0.0 0.00 0.00 0.00 97 1013.9
20260510101324 15 135 0.0 0.0 0.00 0.00 0.00 97 1013.8
20260510100820 15 134 0.0 0.0 0.00 0.00 0.00 97 1013.7
20260510100319 15 134 0.0 0.0 0.00 0.00 0.00 97 1013.7
20260510095814 15 134 0.0 0.0 0.00 0.00 0.00 97 1013.6
20260510095309 15 131 0.0 0.0 0.00 0.00 0.00 97 1013.4
20260510094808 15 135 0.0 0.0 0.00 0.00 0.00 97 1013.5
20260510094304 15 126 0.0 0.0 0.00 0.00 0.00 97 1013.4
20260510093800 15 132 0.0 0.0 0.00 0.00 0.00 97 1013.3
20260510093257 15 145 0.0 0.0 0.00 0.00 0.00 97 1013.4
20260510092753 15 145 0.0 0.0 0.00 0.00 0.00 97 1013.2
20260510092249 15 141 0.0 0.0 0.00 0.00 0.00 97 1013.0
20260510091745 15 141 0.0 0.0 0.00 0.00 0.00 97 1012.9
20260510091242 15 132 0.0 0.0 0.00 0.00 0.00 97 1012.8
20260510090738 15 132 0.0 0.0 0.00 0.00 0.00 97 1012.8
20260510090236 15 137 0.0 0.0 0.00 0.00 0.00 97 1012.8
20260510085731 15 132 0.0 0.0 0.00 0.00 0.00 96 1012.6
20260510085225 15 132 0.0 0.0 0.00 0.00 0.00 96 1012.5
20260510084722 15 132 0.0 0.0 0.00 0.00 0.00 96 1012.7
20260510084219 15 134 0.0 0.0 0.00 0.00 0.00 96 1012.7
20260510083715 15 134 0.0 0.0 0.00 0.00 0.00 96 1012.7
20260510083213 15 134 0.0 0.0 0.00 0.00 0.00 96 1012.5
20260510082708 15 133 0.0 0.0 0.00 0.00 0.00 96 1012.6
20260510082204 15 133 0.0 0.0 0.00 0.00 0.00 96 1012.5
20260510081659 15 138 0.0 0.0 0.00 0.00 0.00 96 1012.5
20260510081155 15 138 0.0 0.0 0.00 0.00 0.00 96 1012.5
20260510080654 15 138 0.0 0.0 0.00 0.00 0.00 96 1012.6
20260510080151 15 129 0.0 0.0 0.00 0.00 0.00 96 1012.6
20260510075648 15 129 0.0 0.0 0.00 0.00 0.00 96 1012.5
20260510075146 15 129 0.0 0.0 0.00 0.00 0.00 96 1012.4
20260510074643 15 129 0.0 0.0 0.00 0.00 0.00 95 1012.8
20260510074138 15 128 0.0 0.0 0.00 0.00 0.00 95 1012.5
20260510073635 15 136 0.0 0.0 0.00 0.00 0.00 95 1012.4
20260510073131 15 136 0.0 0.0 0.00 0.00 0.00 95 1012.4
20260510072627 15 137 0.0 0.0 0.00 0.00 0.00 95 1012.6
20260510072124 15 137 0.0 0.0 0.00 0.00 0.00 95 1012.6
20260510071620 15 137 0.0 0.0 0.00 0.00 0.00 95 1012.6
20260510071118 15 134 0.0 0.0 0.00 0.00 0.00 95 1012.6
20260510070614 15 134 0.0 0.0 0.00 0.00 0.00 95 1012.6
20260510070112 15 136 0.0 0.0 0.00 0.00 0.00 94 1012.7
20260510065608 16 136 0.0 0.0 0.00 0.00 0.00 94 1012.8
20260510065105 16 136 0.0 0.0 0.00 0.00 0.00 94 1012.8
20260510064601 16 136 0.0 0.0 0.00 0.00 0.00 94 1012.5
20260510064058 16 136 0.0 0.0 0.00 0.00 0.00 94 1012.5
20260510063555 16 136 0.0 0.0 0.00 0.00 0.00 94 1012.5
20260510063051 16 136 0.0 0.0 0.00 0.00 0.00 94 1012.6
20260510062547 16 136 0.0 0.0 0.00 0.00 0.00 94 1012.4
20260510062043 16 136 0.0 0.0 0.00 0.00 0.00 94 1012.5
20260510061539 16 136 0.0 0.0 0.00 0.00 0.00 93 1012.2
20260510061036 16 136 0.0 0.0 0.00 0.00 0.00 93 1012.4
20260510060532 16 136 0.0 0.0 0.00 0.00 0.00 93 1012.1
20260510060029 16 136 0.0 0.0 0.00 0.00 0.00 93 1012.4
20260510055525 16 136 0.0 0.0 0.00 0.00 0.00 93 1012.2
20260510055024 16 136 0.0 0.0 0.00 0.00 0.00 93 1012.4
20260510054519 16 136 0.0 0.0 0.00 0.00 0.00 93 1012.2
20260510054014 16 136 0.0 0.0 0.00 0.00 0.00 93 1012.4
20260510053509 16 140 0.0 0.0 0.00 0.00 0.00 93 1012.4
20260510053006 16 141 0.0 0.0 0.00 0.00 0.00 93 1012.5
20260510052502 16 141 0.0 0.0 0.00 0.00 0.00 93 1012.5
20260510051958 16 129 0.0 0.0 0.00 0.00 0.00 93 1012.2
20260510051454 16 129 0.0 0.0 0.00 0.00 0.00 93 1012.3
20260510050950 16 129 0.0 0.0 0.00 0.00 0.00 93 1012.3
20260510050443 16 128 0.0 0.0 0.00 0.00 0.00 92 1012.2
20260510045940 16 132 0.0 0.0 0.00 0.00 0.00 92 1012.1
20260510045437 16 133 0.0 0.0 0.00 0.00 0.00 92 1012.3
20260510044933 16 139 0.0 0.0 0.00 0.00 0.00 92 1012.4
20260510044430 16 126 0.0 0.0 0.00 0.00 0.00 91 1012.0
20260510043927 16 137 0.0 0.0 0.00 0.00 0.00 91 1012.2
20260510043423 16 134 0.0 0.0 0.00 0.00 0.00 91 1012.1
20260510042921 16 136 0.0 0.0 0.00 0.00 0.00 90 1012.0
20260510042417 17 136 0.0 0.0 0.00 0.00 0.00 90 1011.9
20260510041913 17 136 0.0 0.0 0.00 0.00 0.00 90 1012.1
20260510041410 17 133 0.0 0.0 0.00 0.00 0.00 89 1012.1
20260510040908 17 134 0.0 0.0 0.00 0.00 0.00 89 1012.2
20260510040404 17 134 0.0 0.0 0.00 0.00 0.00 89 1012.3
20260510035859 17 134 0.0 0.0 0.00 0.00 0.00 89 1012.3
20260510035356 17 128 0.0 0.0 0.00 0.00 0.00 89 1012.2
20260510034851 17 132 0.0 0.0 0.00 0.00 0.00 88 1012.4
20260510034350 17 138 0.0 0.0 0.00 0.00 0.00 88 1012.2
20260510033846 17 149 0.0 0.0 0.00 0.00 0.00 88 1012.4
20260510033343 17 149 0.0 0.0 0.00 0.00 0.00 88 1012.2
20260510032839 17 149 0.0 0.0 0.00 0.00 0.00 89 1012.3
20260510032336 17 146 0.0 0.0 0.00 0.00 0.00 89 1012.1
20260510031831 17 147 0.0 0.0 0.00 0.00 0.00 88 1012.2
20260510031327 17 135 0.0 0.0 0.00 0.00 0.00 87 1012.1
20260510030827 17 135 0.0 0.0 0.00 0.00 0.00 86 1012.1
20260510030323 17 135 0.0 0.0 0.00 0.00 0.00 86 1012.2
20260510025820 17 131 0.0 0.0 0.00 0.00 0.00 85 1012.2
20260510025318 17 135 0.0 0.0 0.00 0.00 0.00 84 1012.1
20260510024815 18 135 0.0 0.0 0.00 0.00 0.00 84 1012.1
20260510024312 18 135 0.0 0.0 0.00 0.00 0.00 83 1011.8
20260510023808 18 135 0.0 0.0 0.00 0.00 0.00 82 1011.9
20260510023304 18 135 0.0 0.0 0.00 0.00 0.00 82 1011.8
20260510022801 18 131 0.0 0.0 0.00 0.00 0.00 82 1011.7
20260510022301 18 131 0.0 0.0 0.00 0.00 0.00 81 1011.8
20260510021800 18 135 0.0 0.0 0.00 0.00 0.00 81 1011.6
20260510021258 19 134 0.0 0.0 0.00 0.00 0.00 80 1011.5
20260510020754 19 135 0.0 0.0 0.00 0.00 0.00 79 1011.5
20260510020253 19 135 0.0 0.0 0.00 0.00 0.00 79 1011.4
20260510015750 19 135 0.0 0.0 0.00 0.00 0.00 79 1011.4
20260510015246 20 135 0.0 0.0 0.00 0.00 0.00 78 1011.4
20260510014741 20 134 0.0 0.0 0.00 0.00 0.00 78 1011.3
20260510014239 20 131 0.0 0.0 0.00 0.00 0.00 77 1011.1
20260510013735 20 134 0.0 0.0 0.00 0.00 0.00 77 1011.3
20260510013231 20 134 0.0 0.0 0.00 0.00 0.00 77 1011.0
20260510012731 20 132 0.0 0.0 0.00 0.00 0.00 75 1011.0
20260510012226 21 135 0.0 0.0 0.00 0.00 0.00 73 1011.0
20260510011720 21 134 0.0 0.0 0.00 0.00 0.00 72 1010.8
20260510011216 21 143 0.0 0.0 0.00 0.00 0.00 68 1010.7
20260510010713 22 142 0.0 0.0 0.00 0.00 0.00 66 1010.6
20260510010209 22 141 0.0 0.0 0.00 0.00 0.00 67 1010.4
20260510005706 22 142 0.0 0.0 0.00 0.00 0.00 66 1010.5
20260510005202 22 140 0.0 0.0 0.00 0.00 0.00 64 1010.4
20260510004701 22 143 0.0 0.0 0.00 0.00 0.00 62 1010.1
20260510004158 22 148 0.0 0.0 0.00 0.00 0.00 60 1010.1
20260510003656 23 144 0.0 0.0 0.00 0.00 0.00 60 1010.0
20260510003151 23 140 0.0 0.0 0.00 0.00 0.00 60 1010.1
20260510002651 23 140 0.0 0.0 0.00 0.00 0.00 58 1009.8
20260510002148 23 140 0.0 0.0 0.00 0.00 0.00 57 1009.8
20260510001645 24 140 0.0 0.0 0.00 0.00 0.00 56 1009.9
20260510001144 24 139 0.0 0.0 0.00 0.00 0.00 55 1009.9
20260510000644 25 142 0.0 0.0 0.00 0.00 0.00 54 1009.7
20260510000142 25 142 0.0 0.0 0.00 0.00 0.00 52 1009.8
20260509235638 25 144 0.0 0.0 0.00 0.00 0.00 51 1009.6
20260509235135 25 144 0.0 0.0 0.00 0.00 0.00 50 1009.5
20260509234631 25 144 0.0 0.0 0.00 0.00 0.00 48 1009.5
20260509234129 25 138 0.0 0.0 0.00 0.00 0.00 50 1009.8
20260509233626 25 151 0.0 0.0 0.00 0.00 0.00 51 1009.6
20260509233123 25 142 0.0 0.0 0.00 0.00 0.00 49 1009.5
20260509232619 25 137 0.0 0.0 0.00 0.00 0.00 49 1009.5
20260509232116 26 142 0.0 0.0 0.00 0.00 0.00 47 1009.5
20260509231613 26 139 0.0 0.0 0.00 0.00 0.00 46 1009.7
20260509231111 26 145 0.0 0.0 0.00 0.00 0.00 45 1009.4
20260509230608 26 144 0.0 0.0 0.00 0.00 0.00 45 1009.6
20260509230105 26 149 0.0 0.0 0.00 0.00 0.00 42 1009.4
20260509225600 26 142 0.0 0.0 0.00 0.00 0.00 39 1009.4
20260509225055 26 142 0.0 0.0 0.00 0.00 0.00 37 1009.3
20260509224551 26 160 0.0 1.6 0.00 0.00 0.00 38 1009.4
20260509224048 26 132 0.0 0.0 0.00 0.00 0.00 39 1009.1
20260509223545 26 156 0.0 0.0 0.00 0.00 0.00 39 1009.2
20260509223043 26 156 0.0 0.0 0.00 0.00 0.00 40 1009.3
20260509222539 26 101 0.0 0.0 0.00 0.00 0.00 39 1009.2
20260509222036 26 100 1.6 1.6 0.00 0.00 0.00 42 1009.2
20260509221531 26 147 0.0 0.0 0.00 0.00 0.00 40 1009.1
20260509221027 26 123 0.0 0.0 0.00 0.00 0.00 41 1009.2
20260509220523 26 136 0.0 0.0 0.00 0.00 0.00 45 1009.2
20260509220020 26 140 0.0 0.0 0.00 0.00 0.00 44 1009.3
20260509215515 26 143 0.0 0.0 0.00 0.00 0.00 44 1009.2
20260509215012 26 159 1.6 1.6 0.00 0.00 0.00 42 1009.4
20260509214509 27 140 0.0 0.0 0.00 0.00 0.00 41 1009.2
20260509214006 27 147 0.0 0.0 0.00 0.00 0.00 39 1009.4
20260509213502 27 146 0.0 0.0 0.00 0.00 0.00 41 1009.4
20260509212959 27 168 1.6 3.2 0.00 0.00 0.00 40 1009.3
20260509212456 27 150 0.0 0.0 0.00 0.00 0.00 42 1009.2
20260509211953 26 136 0.0 0.0 0.00 0.00 0.00 42 1009.4
20260509211448 26 132 1.6 1.6 0.00 0.00 0.00 42 1009.7
20260509210945 27 171 1.6 1.6 0.00 0.00 0.00 42 1009.3
20260509210443 26 146 0.0 0.0 0.00 0.00 0.00 43 1009.3
20260509205938 26 146 0.0 0.0 0.00 0.00 0.00 42 1009.4
20260509205433 26 126 0.0 0.0 0.00 0.00 0.00 44 1009.3
20260509204929 26 140 1.6 3.2 0.00 0.00 0.00 46 1009.5
20260509204425 26 109 3.2 3.2 0.00 0.00 0.00 43 1009.6
20260509203922 26 138 0.0 1.6 0.00 0.00 0.00 41 1009.7
20260509203418 26 147 0.0 0.0 0.00 0.00 0.00 42 1009.6
20260509202915 26 157 1.6 3.2 0.00 0.00 0.00 41 1009.7
20260509202411 26 148 1.6 1.6 0.00 0.00 0.00 41 1009.9
20260509201907 26 144 0.0 0.0 0.00 0.00 0.00 42 1009.7
20260509201402 26 128 3.2 4.8 0.00 0.00 0.00 41 1009.8
20260509200859 26 171 3.2 4.8 0.00 0.00 0.00 41 1009.7
20260509200354 26 179 3.2 3.2 0.00 0.00 0.00 40 1010.0
20260509195851 26 158 1.6 1.6 0.00 0.00 0.00 41 1009.8
20260509195346 26 171 4.8 4.8 0.00 0.00 0.00 40 1009.8
20260509194846 26 159 3.2 3.2 0.00 0.00 0.00 41 1009.8
20260509194342 26 110 0.0 0.0 0.00 0.00 0.00 41 1009.9
20260509193838 26 169 1.6 3.2 0.00 0.00 0.00 41 1010.0
20260509193338 26 196 3.2 3.2 0.00 0.00 0.00 44 1010.0
20260509192835 26 159 1.6 1.6 0.00 0.00 0.00 42 1010.2
20260509192330 26 201 3.2 3.2 0.00 0.00 0.00 43 1010.1
20260509191825 26 145 3.2 3.2 0.00 0.00 0.00 39 1010.0
20260509191321 26 103 1.6 3.2 0.00 0.00 0.00 40 1010.2
20260509190818 26 130 0.0 1.6 0.00 0.00 0.00 40 1009.9
20260509190315 26 136 0.0 0.0 0.00 0.00 0.00 41 1010.0
20260509185813 26 56 3.2 4.8 0.00 0.00 0.00 39 1010.0
20260509185308 26 173 1.6 1.6 0.00 0.00 0.00 41 1010.1
20260509184806 26 98 1.6 1.6 0.00 0.00 0.00 45 1009.9
20260509184303 26 147 0.0 0.0 0.00 0.00 0.00 47 1010.2
20260509183759 26 106 0.0 0.0 0.00 0.00 0.00 45 1010.1
20260509183255 26 58 3.2 3.2 0.00 0.00 0.00 46 1010.3
20260509182750 27 150 0.0 0.0 0.00 0.00 0.00 46 1010.1
20260509182248 26 136 3.2 4.8 0.00 0.00 0.00 48 1010.2
20260509181745 26 169 3.2 3.2 0.00 0.00 0.00 48 1010.3
20260509181242 26 176 4.8 6.4 0.00 0.00 0.00 48 1010.4
20260509180740 26 196 4.8 4.8 0.00 0.00 0.00 46 1010.4
20260509180236 26 169 3.2 4.8 0.00 0.00 0.00 48 1010.4
20260509175732 25 180 1.6 3.2 0.00 0.00 0.00 49 1010.5
20260509175228 25 158 0.0 0.0 0.00 0.00 0.00 50 1010.3
20260509174725 25 122 0.0 0.0 0.00 0.00 0.00 51 1010.6
20260509174220 26 149 0.0 0.0 0.00 0.00 0.00 50 1010.6
20260509173717 25 142 1.6 1.6 0.00 0.00 0.00 53 1010.6
20260509173212 26 195 1.6 3.2 0.00 0.00 0.00 50 1010.6
20260509172708 26 120 0.0 1.6 0.00 0.00 0.00 52 1010.6
20260509172205 26 191 1.6 1.6 0.00 0.00 0.00 51 1010.5
20260509171700 26 154 1.6 3.2 0.00 0.00 0.00 52 1010.8
20260509171157 27 131 0.0 0.0 0.00 0.00 0.00 49 1010.6
20260509170654 26 134 0.0 0.0 0.00 0.00 0.00 53 1010.6
20260509170150 25 106 0.0 0.0 0.00 0.00 0.00 54 1010.5
20260509165648 25 138 0.0 0.0 0.00 0.00 0.00 54 1010.6
20260509165144 25 123 0.0 0.0 0.00 0.00 0.00 54 1010.6
20260509164640 25 32 1.6 3.2 0.00 0.00 0.00 54 1010.6
20260509164136 25 123 1.6 1.6 0.00 0.00 0.00 55 1010.6
20260509163634 25 81 0.0 0.0 0.00 0.00 0.00 56 1010.6
20260509163129 25 133 0.0 0.0 0.00 0.00 0.00 55 1010.6
20260509162626 25 174 0.0 0.0 0.00 0.00 0.00 56 1010.8
20260509162122 25 141 0.0 0.0 0.00 0.00 0.00 59 1010.9
20260509161619 25 150 0.0 0.0 0.00 0.00 0.00 62 1010.6
20260509161114 24 134 3.2 3.2 0.00 0.00 0.00 58 1010.9
20260509160610 24 131 0.0 0.0 0.00 0.00 0.00 63 1010.6
20260509160105 23 126 0.0 0.0 0.00 0.00 0.00 63 1010.6
20260509155602 23 66 3.2 4.8 0.00 0.00 0.00 65 1010.5
20260509155058 22 96 0.0 0.0 0.00 0.00 0.00 66 1010.4
20260509154554 22 124 1.6 1.6 0.00 0.00 0.00 67 1010.5
20260509154052 22 140 0.0 0.0 0.00 0.00 0.00 69 1010.4
20260509153549 22 101 1.6 3.2 0.00 0.00 0.00 68 1010.4
20260509153046 22 84 3.2 3.2 0.00 0.00 0.00 69 1010.3
20260509152541 22 75 1.6 1.6 0.00 0.00 0.00 70 1010.2
20260509152039 21 32 3.2 3.2 0.00 0.00 0.00 70 1010.2
20260509151535 21 134 0.0 0.0 0.00 0.00 0.00 72 1010.3
20260509151033 21 104 1.6 1.6 0.00 0.00 0.00 72 1010.2
20260509150530 21 131 0.0 0.0 0.00 0.00 0.00 73 1010.3
20260509150029 21 119 0.0 0.0 0.00 0.00 0.00 73 1010.2
20260509145524 21 63 1.6 1.6 0.00 0.00 0.00 73 1010.2
20260509145019 20 183 0.0 0.0 0.00 0.00 0.00 75 1010.4
20260509144516 20 166 0.0 0.0 0.00 0.00 0.00 74 1010.5
20260509144014 20 158 0.0 1.6 0.00 0.00 0.00 77 1010.5
20260509143510 20 81 1.6 1.6 0.00 0.00 0.00 79 1010.5
20260509143008 20 149 0.0 0.0 0.00 0.00 0.00 80 1010.4
20260509142504 20 135 0.0 0.0 0.00 0.00 0.00 81 1010.7
20260509141959 19 158 0.0 0.0 0.00 0.00 0.00 81 1010.8
20260509141456 19 156 0.0 0.0 0.00 0.00 0.00 82 1010.6
20260509140953 19 144 0.0 0.0 0.00 0.00 0.00 82 1010.7
20260509140449 18 167 0.0 0.0 0.00 0.00 0.00 84 1010.7
20260509135947 18 146 1.6 1.6 0.00 0.00 0.00 85 1010.5
20260509135444 18 175 0.0 1.6 0.00 0.00 0.00 85 1010.4
20260509134942 18 175 0.0 0.0 0.00 0.00 0.00 86 1010.5
20260509134439 18 139 0.0 0.0 0.00 0.00 0.00 86 1010.3
20260509133937 17 138 1.6 1.6 0.00 0.00 0.00 87 1010.3
20260509133433 17 159 0.0 1.6 0.00 0.00 0.00 87 1010.2
20260509132931 17 148 0.0 0.0 0.00 0.00 0.00 88 1010.2
20260509132429 17 141 0.0 0.0 0.00 0.00 0.00 89 1010.1
20260509131925 16 158 0.0 1.6 0.00 0.00 0.00 91 1010.1
20260509131423 16 147 0.0 0.0 0.00 0.00 0.00 92 1010.1
20260509130920 16 154 0.0 0.0 0.00 0.00 0.00 92 1010.0
20260509130414 15 142 0.0 0.0 0.00 0.00 0.00 93 1010.0
20260509125912 15 145 0.0 0.0 0.00 0.00 0.00 93 1010.1
20260509125409 15 150 0.0 1.6 0.00 0.00 0.00 93 1010.1
20260509124904 15 147 1.6 1.6 0.00 0.00 0.00 94 1010.1
20260509124402 15 145 0.0 0.0 0.00 0.00 0.00 94 1010.0
20260509123859 14 152 3.2 3.2 0.00 0.00 0.00 95 1010.1
20260509123356 14 163 1.6 1.6 0.00 0.00 0.00 96 1010.0
20260509122852 13 143 0.0 0.0 0.00 0.00 0.00 96 1010.1
20260509122349 13 133 0.0 0.0 0.00 0.00 0.00 97 1010.0
20260509121846 13 146 0.0 0.0 0.00 0.00 0.00 97 1010.0
20260509121343 13 152 3.2 3.2 0.00 0.00 0.00 97 1010.2
20260509120841 13 148 0.0 1.6 0.00 0.00 0.00 97 1010.0
20260509120339 12 156 1.6 3.2 0.00 0.00 0.00 98 1009.9
20260509115837 12 155 1.6 1.6 0.00 0.00 0.00 97 1009.9
20260509115333 12 142 0.0 0.0 0.00 0.00 0.00 97 1009.8
20260509114831 12 142 0.0 0.0 0.00 0.00 0.00 97 1009.9
20260509114330 12 142 0.0 0.0 0.00 0.00 0.00 97 1009.9
20260509113829 12 146 0.0 0.0 0.00 0.00 0.00 97 1009.9
20260509113325 12 139 0.0 0.0 0.00 0.00 0.00 97 1009.8
20260509112822 12 132 0.0 0.0 0.00 0.00 0.00 97 1009.5
20260509112319 12 131 0.0 0.0 0.00 0.00 0.00 97 1009.6
20260509111816 12 132 0.0 0.0 0.00 0.00 0.00 97 1009.7
20260509111313 12 131 0.0 0.0 0.00 0.00 0.00 97 1009.5
20260509110811 12 131 0.0 0.0 0.00 0.00 0.00 97 1009.5
20260509110307 12 131 0.0 0.0 0.00 0.00 0.00 97 1009.7
20260509105805 12 136 0.0 0.0 0.00 0.00 0.00 97 1009.8
20260509105306 12 136 0.0 0.0 0.00 0.00 0.00 97 1009.5
20260509104759 12 141 0.0 0.0 0.00 0.00 0.00 97 1009.5